Location: Innsbruck
(47.2657°N, 11.3914°E)
Time: 03:03:05
(UTC+01:00)

XW-2F - Pass Details

Date: 12 December 2021
Orbit: 495 x 515 km, 97.5° (Epoch: 16 January)

Event Time Altitude Azimuth Distance (km) Brightness Sun altitude
Rises 05:42:03 0° 25° (NNE) 2,646 ? -21.0°
Reaches altitude 10° 05:44:32 10° 41° (NE) 1,751 ? -20.6°
Maximum altitude 05:47:31 22° 94° (E) 1,166 ? -20.1°
Drops below altitude 10° 05:50:28 10° 146° (SE) 1,731 ? -19.6°
Sets 05:52:53 0° 162° (SSE) 2,606 ? -19.2°
